SXAET LGSK-LGKM

Flight info

Callsign SXAET
Flight time N/A
Altitude 10000
Route IBIDI L617 TSL M603 ASKOS
Aircraft DA40/L-SBDGRYZ/S

Departure

Time 2026-04-20 04:48
Airport Skiathos Island National Airport (LGSK)

Arrival

Time N/A
Airport Kavala Amygdaleon Lydia Airfield (LGKM)
Time Latitude Longitude Altitude Speed Heading
2026-04-20 04:40 39.17606 23.50148 3 ft 0 kts 288°
2026-04-20 04:40 39.17606 23.50147 3 ft 1 kts 290°
2026-04-20 04:40 39.17629 23.50173 3 ft 9 kts 57°
2026-04-20 04:40 39.17669 23.50241 3 ft 9 kts
2026-04-20 04:41 39.17748 23.50258 3 ft 13 kts 14°
2026-04-20 04:41 39.17844 23.50295 3 ft 15 kts 18°
2026-04-20 04:41 39.17917 23.50359 3 ft 8 kts 41°
2026-04-20 04:41 39.17921 23.50367 3 ft 0 kts 160°
2026-04-20 04:45 39.17934 23.50428 3 ft 10 kts 62°
2026-04-20 04:45 39.18002 23.50484 3 ft 13 kts 18°
2026-04-20 04:46 39.18095 23.50526 3 ft 15 kts 21°
2026-04-20 04:46 39.18200 23.50573 3 ft 16 kts 19°
2026-04-20 04:46 39.18311 23.50624 3 ft 17 kts 20°
2026-04-20 04:46 39.18405 23.50682 3 ft 7 kts 346°
2026-04-20 04:47 39.18404 23.50666 3 ft 1 kts 202°
2026-04-20 04:47 39.18401 23.50665 3 ft 5 kts 192°
2026-04-20 04:47 39.18136 23.50543 3 ft 68 kts 192°
2026-04-20 04:47 39.17647 23.50333 191 ft 76 kts 194°
2026-04-20 04:48 39.17145 23.50113 429 ft 75 kts 192°
2026-04-20 04:48 39.16622 23.49915 643 ft 83 kts 193°
2026-04-20 04:48 39.16081 23.49662 899 ft 85 kts 196°
2026-04-20 04:48 39.15513 23.49389 1133 ft 88 kts 197°
2026-04-20 04:49 39.14934 23.49115 1376 ft 89 kts 197°
2026-04-20 04:49 39.14349 23.48840 1627 ft 89 kts 198°
2026-04-20 04:49 39.13765 23.48568 1876 ft 89 kts 198°
2026-04-20 04:49 39.13172 23.48322 2114 ft 90 kts 185°
2026-04-20 04:50 39.12590 23.48572 2345 ft 92 kts 137°
2026-04-20 04:50 39.12330 23.49307 2577 ft 94 kts 90°
2026-04-20 04:50 39.12553 23.50086 2816 ft 94 kts 54°
2026-04-20 04:50 39.12911 23.50793 3057 ft 94 kts 55°
2026-04-20 04:51 39.13263 23.51505 3298 ft 95 kts 55°
2026-04-20 04:51 39.13614 23.52226 3537 ft 95 kts 55°
2026-04-20 04:51 39.13964 23.52952 3777 ft 96 kts 56°
2026-04-20 04:51 39.14313 23.53680 4016 ft 96 kts 55°
2026-04-20 04:52 39.14662 23.54411 4255 ft 96 kts 55°
2026-04-20 04:52 39.15009 23.55141 4492 ft 96 kts 55°
2026-04-20 04:52 39.15363 23.55886 4734 ft 97 kts 55°
2026-04-20 04:52 39.15713 23.56622 4974 ft 97 kts 55°
2026-04-20 04:53 39.16061 23.57357 5210 ft 97 kts 54°
2026-04-20 04:53 39.16416 23.58104 5449 ft 97 kts 54°
2026-04-20 04:53 39.16768 23.58846 5683 ft 98 kts 53°
2026-04-20 04:53 39.17128 23.59603 5925 ft 98 kts 53°
2026-04-20 04:54 39.17484 23.60352 6162 ft 98 kts 54°
2026-04-20 04:54 39.17920 23.60996 6400 ft 95 kts 22°
2026-04-20 04:54 39.18546 23.61070 6631 ft 92 kts 347°
2026-04-20 04:54 39.19180 23.60884 6860 ft 93 kts 343°
2026-04-20 04:55 39.19803 23.60653 7098 ft 93 kts 341°
2026-04-20 04:55 39.20415 23.60399 7332 ft 93 kts 340°
2026-04-20 04:55 39.21031 23.60127 7568 ft 93 kts 339°
2026-04-20 04:55 39.21645 23.59846 7806 ft 93 kts 338°
2026-04-20 04:56 39.22252 23.59562 8032 ft 94 kts 338°
2026-04-20 04:56 39.22871 23.59269 8268 ft 94 kts 337°
2026-04-20 04:56 39.23482 23.58978 8496 ft 95 kts 337°
2026-04-20 04:56 39.24098 23.58683 8729 ft 95 kts 337°
2026-04-20 04:57 39.24715 23.58387 8961 ft 95 kts 337°
2026-04-20 04:57 39.25333 23.58089 9195 ft 95 kts 337°
2026-04-20 04:57 39.25955 23.57790 9429 ft 95 kts 337°
2026-04-20 04:57 39.26574 23.57492 9662 ft 95 kts 337°
2026-04-20 04:58 39.27191 23.57194 9894 ft 95 kts 337°
2026-04-20 04:58 39.27823 23.56889 10027 ft 104 kts 338°
2026-04-20 04:58 39.28550 23.56540 10037 ft 116 kts 339°
2026-04-20 04:58 39.29343 23.56163 10031 ft 123 kts 339°
2026-04-20 04:59 39.30160 23.55773 10026 ft 128 kts 339°
2026-04-20 04:59 39.31010 23.55365 10022 ft 131 kts 339°
2026-04-20 04:59 39.31871 23.54950 10022 ft 132 kts 339°
2026-04-20 04:59 39.32740 23.54532 10021 ft 133 kts 339°
2026-04-20 05:00 39.33610 23.54112 10022 ft 133 kts 339°
2026-04-20 05:00 39.34479 23.53693 10022 ft 134 kts 339°
2026-04-20 05:00 39.35354 23.53271 10022 ft 134 kts 339°
2026-04-20 05:00 39.36232 23.52847 10021 ft 134 kts 339°
2026-04-20 05:01 39.37109 23.52423 10020 ft 134 kts 339°
2026-04-20 05:01 39.37977 23.52003 10022 ft 134 kts 339°
2026-04-20 05:01 39.38853 23.51579 10024 ft 134 kts 339°
2026-04-20 05:01 39.39721 23.51159 10023 ft 134 kts 339°
2026-04-20 05:02 39.40601 23.50734 10024 ft 134 kts 339°
2026-04-20 05:02 39.41474 23.50312 10024 ft 134 kts 339°
2026-04-20 05:02 39.42407 23.50254 10022 ft 135 kts
2026-04-20 05:02 39.43265 23.49859 10018 ft 133 kts 326°
2026-04-20 05:03 39.44060 23.49258 10021 ft 133 kts 333°
2026-04-20 05:03 39.44903 23.48745 10018 ft 133 kts 336°
2026-04-20 05:03 39.45763 23.48281 10017 ft 134 kts 338°
2026-04-20 05:03 39.46628 23.47840 10016 ft 134 kts 338°
2026-04-20 05:04 39.47494 23.47412 10017 ft 134 kts 339°
2026-04-20 05:04 39.48376 23.46980 10017 ft 134 kts 339°
2026-04-20 05:04 39.49252 23.46555 10017 ft 134 kts 339°
2026-04-20 05:04 39.50128 23.46129 10017 ft 134 kts 339°
2026-04-20 05:05 39.51005 23.45705 10017 ft 134 kts 339°
2026-04-20 05:05 39.51883 23.45279 10017 ft 135 kts 339°
2026-04-20 05:05 39.52762 23.44854 10017 ft 134 kts 339°
2026-04-20 05:05 39.53631 23.44433 10015 ft 135 kts 339°
2026-04-20 05:06 39.54511 23.44008 10013 ft 135 kts 339°
2026-04-20 05:06 39.55392 23.43581 10012 ft 135 kts 339°
2026-04-20 05:06 39.56272 23.43154 10011 ft 135 kts 339°
2026-04-20 05:06 39.57152 23.42728 10010 ft 135 kts 339°
2026-04-20 05:07 39.58032 23.42300 10011 ft 135 kts 339°
2026-04-20 05:07 39.58914 23.41871 10012 ft 135 kts 339°
2026-04-20 05:07 39.59797 23.41441 10011 ft 135 kts 339°
2026-04-20 05:07 39.60679 23.41012 10012 ft 135 kts 339°
2026-04-20 05:08 39.61560 23.40582 10012 ft 135 kts 339°
2026-04-20 05:08 39.62441 23.40154 10011 ft 135 kts 339°
2026-04-20 05:08 39.63311 23.39730 10010 ft 135 kts 339°
2026-04-20 05:08 39.64194 23.39301 10010 ft 135 kts 339°
2026-04-20 05:09 39.65076 23.38873 10009 ft 135 kts 339°
2026-04-20 05:09 39.65963 23.38442 10009 ft 135 kts 339°
2026-04-20 05:09 39.66837 23.38018 10010 ft 135 kts 339°
2026-04-20 05:09 39.67722 23.37588 10010 ft 135 kts 339°
2026-04-20 05:10 39.68610 23.37157 10010 ft 135 kts 339°
2026-04-20 05:10 39.69485 23.36731 10010 ft 135 kts 339°
2026-04-20 05:10 39.70371 23.36299 10010 ft 135 kts 339°
2026-04-20 05:10 39.71248 23.35871 10011 ft 135 kts 339°
2026-04-20 05:11 39.72123 23.35444 10011 ft 135 kts 339°
2026-04-20 05:11 39.73015 23.35008 10012 ft 135 kts 339°
2026-04-20 05:11 39.73897 23.34578 10013 ft 136 kts 338°
2026-04-20 05:11 39.74785 23.34143 10012 ft 136 kts 338°
2026-04-20 05:12 39.75672 23.33710 10010 ft 136 kts 338°
2026-04-20 05:12 39.76561 23.33275 10008 ft 136 kts 338°
2026-04-20 05:12 39.77448 23.32842 10007 ft 136 kts 339°
2026-04-20 05:12 39.78337 23.32407 10006 ft 135 kts 339°
2026-04-20 05:13 39.79225 23.31973 10006 ft 135 kts 338°
2026-04-20 05:13 39.80101 23.31545 10006 ft 135 kts 338°
2026-04-20 05:13 39.80985 23.31113 10006 ft 135 kts 338°
2026-04-20 05:13 39.81864 23.30682 10007 ft 135 kts 338°
2026-04-20 05:14 39.82742 23.30253 10007 ft 136 kts 338°
2026-04-20 05:14 39.83634 23.29816 10007 ft 136 kts 338°
2026-04-20 05:14 39.84521 23.29380 10007 ft 136 kts 338°
2026-04-20 05:14 39.85405 23.28946 10007 ft 136 kts 338°
2026-04-20 05:15 39.86294 23.28509 10007 ft 136 kts 338°
2026-04-20 05:15 39.87190 23.28070 10007 ft 136 kts 338°
2026-04-20 05:15 39.88076 23.27635 10007 ft 136 kts 339°
2026-04-20 05:15 39.88966 23.27199 10007 ft 136 kts 339°
2026-04-20 05:16 39.89859 23.26760 10007 ft 136 kts 339°
2026-04-20 05:16 39.90747 23.26325 10006 ft 136 kts 339°
2026-04-20 05:16 39.91637 23.25888 10007 ft 136 kts 338°
2026-04-20 05:16 39.92526 23.25453 10006 ft 136 kts 338°
2026-04-20 05:17 39.93411 23.25019 10006 ft 136 kts 338°
2026-04-20 05:17 39.94308 23.24579 10007 ft 137 kts 338°
2026-04-20 05:17 39.95194 23.24144 10006 ft 137 kts 338°
2026-04-20 05:17 39.96091 23.23703 10006 ft 137 kts 338°
2026-04-20 05:18 39.96993 23.23259 10006 ft 137 kts 338°
2026-04-20 05:18 39.97879 23.22824 10006 ft 137 kts 338°
2026-04-20 05:18 39.98784 23.22380 10007 ft 138 kts 339°
2026-04-20 05:18 39.99733 23.22405 10009 ft 139 kts 12°
2026-04-20 05:19 40.00669 23.22735 10008 ft 140 kts 14°
2026-04-20 05:19 40.01601 23.23108 10007 ft 139 kts 16°
2026-04-20 05:19 40.02528 23.23506 10006 ft 139 kts 17°
2026-04-20 05:19 40.03450 23.23918 10006 ft 139 kts 17°
2026-04-20 05:20 40.04359 23.24338 10006 ft 139 kts 18°
2026-04-20 05:20 40.05274 23.24767 10007 ft 139 kts 18°
2026-04-20 05:20 40.06178 23.25198 10007 ft 139 kts 18°
2026-04-20 05:20 40.07094 23.25637 10007 ft 140 kts 18°
2026-04-20 05:21 40.08017 23.26083 10007 ft 140 kts 18°
2026-04-20 05:21 40.08930 23.26525 10007 ft 140 kts 18°
2026-04-20 05:21 40.09849 23.26971 10008 ft 141 kts 18°
2026-04-20 05:21 40.10777 23.27420 10008 ft 141 kts 18°
2026-04-20 05:22 40.11698 23.27870 10008 ft 141 kts 18°
2026-04-20 05:22 40.12615 23.28316 10008 ft 140 kts 18°
2026-04-20 05:22 40.13522 23.28759 10008 ft 140 kts 18°
2026-04-20 05:22 40.14435 23.29205 10008 ft 140 kts 18°
2026-04-20 05:23 40.15353 23.29654 10009 ft 139 kts 18°
2026-04-20 05:23 40.16253 23.30094 10009 ft 139 kts 18°
2026-04-20 05:23 40.17166 23.30548 10009 ft 139 kts 18°
2026-04-20 05:23 40.18080 23.31003 10010 ft 140 kts 18°
2026-04-20 05:24 40.18985 23.31456 10010 ft 140 kts 18°
2026-04-20 05:24 40.19910 23.31903 10010 ft 140 kts 18°
2026-04-20 05:24 40.20835 23.32349 9944 ft 144 kts 18°
2026-04-20 05:24 40.21770 23.32804 9821 ft 143 kts 18°
2026-04-20 05:25 40.22706 23.33261 9694 ft 143 kts 18°
2026-04-20 05:25 40.23631 23.33714 9569 ft 142 kts 18°
2026-04-20 05:25 40.24567 23.34173 9442 ft 142 kts 18°
2026-04-20 05:25 40.25490 23.34625 9315 ft 141 kts 18°
2026-04-20 05:26 40.26411 23.35076 9189 ft 141 kts 19°
2026-04-20 05:26 40.27332 23.35527 9064 ft 141 kts 19°
2026-04-20 05:26 40.28246 23.35975 9013 ft 141 kts 19°
2026-04-20 05:26 40.29165 23.36425 9008 ft 140 kts 18°
2026-04-20 05:27 40.30083 23.36873 9005 ft 140 kts 18°
2026-04-20 05:27 40.31000 23.37324 9004 ft 140 kts 18°
2026-04-20 05:27 40.31914 23.37772 9001 ft 140 kts 18°
2026-04-20 05:27 40.32821 23.38217 9001 ft 140 kts 18°
2026-04-20 05:28 40.33741 23.38668 9000 ft 140 kts 18°
2026-04-20 05:28 40.34649 23.39114 8999 ft 140 kts 18°
2026-04-20 05:28 40.35567 23.39566 9002 ft 140 kts 18°
2026-04-20 05:28 40.36483 23.40016 9001 ft 140 kts 18°
2026-04-20 05:29 40.37399 23.40467 9004 ft 140 kts 18°
2026-04-20 05:29 40.38315 23.40918 9004 ft 139 kts 18°
2026-04-20 05:29 40.39218 23.41363 9004 ft 139 kts 18°
2026-04-20 05:29 40.40132 23.41813 9006 ft 139 kts 18°
2026-04-20 05:30 40.41040 23.42259 9009 ft 139 kts 18°
2026-04-20 05:30 40.41939 23.42702 9009 ft 139 kts 18°
2026-04-20 05:30 40.42857 23.43155 9010 ft 139 kts 18°
2026-04-20 05:30 40.43763 23.43603 9011 ft 139 kts 18°
2026-04-20 05:31 40.44663 23.44047 9013 ft 139 kts 18°
2026-04-20 05:31 40.45581 23.44501 9017 ft 140 kts 18°
2026-04-20 05:31 40.46486 23.44947 9017 ft 140 kts 18°
2026-04-20 05:31 40.47399 23.45397 9014 ft 140 kts 18°
2026-04-20 05:32 40.48317 23.45850 9012 ft 140 kts 18°
2026-04-20 05:32 40.49224 23.46299 9012 ft 139 kts 18°
2026-04-20 05:32 40.50133 23.46748 9012 ft 139 kts 17°
2026-04-20 05:32 40.51036 23.47193 9013 ft 139 kts 17°
2026-04-20 05:33 40.51949 23.47646 9016 ft 139 kts 18°
2026-04-20 05:33 40.52653 23.48513 9012 ft 144 kts 63°
2026-04-20 05:33 40.52931 23.49783 9020 ft 145 kts 75°
2026-04-20 05:33 40.53155 23.51072 9017 ft 145 kts 76°
2026-04-20 05:34 40.53366 23.52377 9018 ft 146 kts 76°
2026-04-20 05:34 40.53568 23.53677 9016 ft 146 kts 76°
2026-04-20 05:34 40.53959 23.56302 9018 ft 146 kts 77°
2026-04-20 05:35 40.54151 23.57617 9018 ft 146 kts 77°
2026-04-20 05:35 40.54339 23.58923 9018 ft 146 kts 77°
2026-04-20 05:35 40.54529 23.60247 9019 ft 147 kts 77°
2026-04-20 05:35 40.54716 23.61559 9019 ft 146 kts 77°
2026-04-20 05:36 40.54905 23.62881 9019 ft 146 kts 77°
2026-04-20 05:36 40.55092 23.64196 9021 ft 146 kts 77°
2026-04-20 05:36 40.55276 23.65497 9020 ft 146 kts 78°
2026-04-20 05:36 40.55462 23.66809 9019 ft 146 kts 78°
2026-04-20 05:37 40.55648 23.68127 9020 ft 146 kts 78°
2026-04-20 05:37 40.55833 23.69436 9019 ft 145 kts 78°
2026-04-20 05:37 40.56018 23.70750 9020 ft 145 kts 78°
2026-04-20 05:37 40.56200 23.72043 9020 ft 146 kts 78°
2026-04-20 05:38 40.56385 23.73358 9021 ft 146 kts 77°
2026-04-20 05:38 40.56570 23.74669 9022 ft 146 kts 77°
2026-04-20 05:38 40.56756 23.75995 9023 ft 146 kts 77°
2026-04-20 05:38 40.56941 23.77306 9023 ft 146 kts 77°
2026-04-20 05:39 40.57125 23.78616 9022 ft 146 kts 77°
2026-04-20 05:39 40.57312 23.79947 9022 ft 146 kts 78°
2026-04-20 05:39 40.57495 23.81249 9022 ft 146 kts 78°
2026-04-20 05:39 40.57676 23.82569 9024 ft 146 kts 78°
2026-04-20 05:40 40.57855 23.83874 9026 ft 146 kts 77°
2026-04-20 05:40 40.58047 23.85185 9023 ft 145 kts 72°
2026-04-20 05:40 40.58289 23.86480 9026 ft 145 kts 77°
2026-04-20 05:40 40.58377 23.87122 9026 ft 145 kts 78°